CST,Max TemperatureF,Mean TemperatureF,Min TemperatureF,Max Dew PointF,MeanDew PointF,Min DewpointF,Max Humidity, Mean Humidity, Min Humidity, Max Sea Level PressureIn, Mean Sea Level PressureIn, Min Sea Level PressureIn, Max VisibilityMiles, Mean VisibilityMiles, Min VisibilityMiles, Max Wind SpeedMPH, Mean Wind SpeedMPH, Max Gust SpeedMPH,PrecipitationIn, CloudCover, Events, WindDirDegrees
2012-11-1,37,34,30,30,26,18,81,68,48,29.97,29.87,29.81,10,10,4,17,8,23,0.01,8,,318
2012-11-2,33,30,26,23,20,18,74,66,60,30.19,30.10,29.98,10,10,10,12,6,,0.00,5,,23
2012-11-3,35,30,26,25,22,19,86,71,56,30.24,30.22,30.19,10,10,10,9,4,,0.00,7,,94
2012-11-4,35,28,21,23,20,16,93,70,56,30.24,30.23,30.20,10,10,10,7,3,,0.00,6,,95
2012-11-5,35,27,19,25,21,14,86,71,56,30.23,30.14,29.95,10,10,10,10,2,16,0.00,6,,175
2012-11-6,37,35,33,30,28,21,87,76,60,29.93,29.80,29.72,10,9,3,14,9,24,0.02,8,,173
2012-11-7,39,36,33,34,32,30,93,84,75,30.06,30.01,29.89,10,8,1,9,5,,0.02,8,,211
2012-11-8,51,43,35,34,32,28,81,69,50,30.05,29.96,29.84,10,10,10,16,6,20,0.03,5,,197
2012-11-9,41,38,33,36,32,27,87,80,75,30.12,30.09,30.03,10,10,5,16,5,20,0.03,8,,64
2012-11-10,57,45,33,52,36,27,93,82,75,30.09,29.80,29.52,10,7,2,22,12,28,0.57,8,Thunderstorm,102
2012-11-11,60,43,26,52,38,19,87,78,63,29.75,29.60,29.50,10,9,3,18,13,28,0.20,6,,235
2012-11-12,26,24,21,18,13,9,74,65,54,30.11,29.88,29.75,10,10,5,21,15,28,0.00,8,,248
2012-11-13,35,27,19,18,14,10,80,57,38,30.29,30.25,30.12,10,10,10,17,11,22,0.00,4,,219
2012-11-14,41,36,32,27,24,18,70,61,52,30.28,30.21,30.13,10,10,10,14,7,21,0.00,4,,187
2012-11-15,51,38,23,30,24,16,74,58,43,30.40,30.19,30.08,10,10,10,15,10,21,0.00,1,,256
2012-11-16,39,27,15,25,17,10,86,62,39,30.47,30.41,30.34,10,10,10,10,2,16,0.00,0,,157
2012-11-17,51,42,33,34,32,27,81,66,50,30.34,30.28,30.21,10,8,3,18,10,30,0.00,1,,182
2012-11-18,55,48,41,30,28,27,61,48,36,30.27,30.16,30.10,10,10,10,18,10,26,0.00,4,,173
2012-11-19,55,48,42,37,33,28,71,56,47,30.12,30.06,30.01,10,10,10,16,8,22,0.01,6,,194
2012-11-20,42,34,26,36,31,21,93,85,70,30.12,30.07,30.02,10,3,0,8,2,,0.00,5,,213
2012-11-21,51,40,30,39,34,25,81,66,54,30.04,29.89,29.72,10,10,7,16,6,24,0.00,0,,194
2012-11-22,60,43,26,39,35,21,86,62,45,29.70,29.58,29.51,10,9,2,21,13,29,0.01,2,,231
2012-11-23,28,24,21,25,17,12,86,75,68,30.18,29.94,29.60,10,4,0,24,19,32,0.01,8,,313
2012-11-24,23,20,17,18,12,10,86,70,59,30.17,29.98,29.76,10,8,1,9,6,,0.00,7,,200
2012-11-25,24,22,21,19,16,10,86,75,54,30.01,29.82,29.72,10,8,1,20,11,25,0.00,8,,266
2012-11-26,21,11,1,12,5,-8,85,73,62,30.27,30.19,30.01,10,7,1,16,11,20,0.00,6,,255
2012-11-27,28,20,12,19,13,3,80,69,54,30.22,30.08,30.00,10,8,1,16,11,20,0.00,6,,231
2012-11-28,26,22,17,18,12,9,80,68,58,30.23,30.14,30.05,10,10,7,17,11,28,0.00,4,,255
2012-11-29,26,22,17,21,18,14,93,81,69,30.21,30.15,30.07,10,9,3,15,4,,0.00,7,,67
2012-11-30,32,26,21,27,20,12,86,75,59,30.24,30.17,30.08,10,10,5,15,10,18,0.00,8,,111